Simultaneous Nadir Overpasses (SNOs) Predictions

Prediction of SNOs between GOES-15 and TERRA Satellite Orbit:

Table of predicted SNOs for the next 14.0 days since TLE Epoch: 5/3/2014
Index Date Time (GOES-15) GOES-15 Lat,Lon TERRA Lat,Lon Distance(km) Time Diff (sec)
1 05/04/2014 19:21:52 -0.05,-135.27 -0.57,-132.68 294.22 80
2 05/05/2014 07:43:17 0.05,-135.25 -0.54,-137.87 299.47 80
3 05/07/2014 07:28:29 0.05,-135.20 0.11,-134.93 30.76 80
4 05/09/2014 07:16:20 0.05,-135.16 0.71,-131.98 360.68 80
5 05/09/2014 19:37:37 -0.06,-135.16 0.34,-137.15 225.71 80
6 05/11/2014 19:28:08 -0.06,-135.11 -0.28,-134.20 103.69 80
7 05/12/2014 07:49:31 0.06,-135.08 -0.88,-139.38 490.05 80
8 05/13/2014 19:15:58 -0.06,-135.05 -0.85,-131.24 432.26 80
9 05/14/2014 07:37:22 0.06,-135.01 -0.25,-136.44 161.69 80
10 05/16/2014 07:22:34 0.06,-134.94 0.40,-133.49 165.84 80
11 05/16/2014 19:43:49 -0.06,-134.94 0.70,-138.65 421.55 80




NCC Satellite Simultaneous Nadir Overpasses (SNOs) Prediction Service
